Orbital Elements at Epoch 2459200.5 (2020-Dec-17.0) TDB
Reference: JPL 31 (heliocentric ecliptic J2000)
Element | Value | Uncertainty (1-sigma) | Units |
e | .1607680334703731 | 3.5133e-08 | |
a | 2.588518060712568 | 1.0473e-08 | au |
q | 2.172367102489265 | 9.0915e-08 | au |
i | 2.300465070135301 | 3.737e-06 | deg |
node | 232.5502837875204 | 0.00010184 | deg |
peri | 72.0199971256003 | 0.00010267 | deg |
M | 227.360853175849 | 1.3593e-05 | deg |
tp | 2459760.959771059991 (2022-Jun-30.45977106) | 5.8031e-05 | TDB |
period | 1521.161153494839 4.16 | 9.2315e-06 2.527e-08 | d yr |
n | .2366613157145821 | 1.4362e-09 | deg/d |
Q | 3.004669018935871 | 1.2156e-08 | au |
|
| | Orbit Determination Parameters
Additional Information
|